#timestamp,LO_Frequency,Hit,Temp,Hum 
1487962815.1,286046939.3,N,0.0,0.0
1487962835.8,286046939.9,N,0.0,0.0
1487962855.7,286046937.4,N,0.0,0.0
1487962875.5,286046935.9,N,0.0,0.0
1487962895.3,286046940.2,N,0.0,0.0
1487962915.2,286046941.3,N,0.0,0.0
1487962935.0,286046944.3,N,0.0,0.0
1487962935.9,286046944.3,N,0.0,0.0
1487962955.7,286046951.1,N,0.0,0.0
1487962975.6,286046955.1,N,0.0,0.0
1487962995.4,286046960.1,N,0.0,0.0
1487963015.2,286046964.4,N,0.0,0.0
1487963035.1,286046964.4,N,0.0,0.0
1487963036.0,286046964.4,N,0.0,0.0
1487963055.8,286046967.1,N,0.0,0.0
1487963075.6,286046971.8,N,0.0,0.0
1487963095.5,286046974.7,N,0.0,0.0
1487963115.3,286046976.8,N,0.0,0.0
1487963135.1,286046972.6,N,0.0,0.0
1487963155.9,286046969.9,N,0.0,0.0
1487963175.7,286046966.7,N,0.0,0.0
1487963195.5,286046964.1,N,0.0,0.0
1487963215.4,286046961.7,N,0.0,0.0
1487963235.2,286046961.0,N,0.0,0.0
1487963255.0,286046960.8,N,0.0,0.0
1487963255.9,286046960.8,N,0.0,0.0
1487963275.8,286046956.9,N,0.0,0.0
1487963295.6,286046954.8,N,0.0,0.0
1487963315.4,286046949.7,N,0.0,0.0
1487963335.3,286046945.3,N,0.0,0.0
1487963355.1,286046949.9,N,0.0,0.0
1487963356.0,286046949.9,N,0.0,0.0
1487963375.8,286046959.1,N,0.0,0.0
1487963395.7,286046955.3,N,0.0,0.0
1487963415.5,286046957.9,N,0.0,0.0
1487963435.3,286046961.9,N,0.0,0.0
1487963455.1,286046967.4,N,0.0,0.0
1487963475.9,286046967.6,N,0.0,0.0
1487963495.7,286046967.3,N,0.0,0.0
1487963515.5,286046968.7,N,0.0,0.0
1487963535.4,286046968.7,N,0.0,0.0
1487963555.2,286046968.0,N,0.0,0.0
1487963575.0,286046966.7,N,0.0,0.0
1487963575.9,286046966.7,N,0.0,0.0
1487963595.8,286046965.8,N,0.0,0.0
1487963615.6,286046965.9,N,0.0,0.0
1487963635.4,286046964.0,N,0.0,0.0
1487963655.3,286046965.4,N,0.0,0.0
1487963675.1,286046965.3,N,0.0,0.0
1487963695.8,286046962.0,N,0.0,0.0
1487963715.7,286046960.4,N,0.0,0.0
1487963735.5,286046958.3,N,0.0,0.0
1487963755.3,286046959.5,N,0.0,0.0
1487963775.2,286046957.3,N,0.0,0.0
1487963795.9,286046954.9,N,0.0,0.0
1487963815.7,286046957.0,N,0.0,0.0
1487963835.6,286046956.7,N,0.0,0.0
1487963855.4,286046955.3,N,0.0,0.0
1487963875.2,286046953.5,N,0.0,0.0
1487963895.1,286046953.5,N,0.0,0.0
1487963896.0,286046953.5,N,0.0,0.0
1487963915.8,286046953.7,N,0.0,0.0
1487963935.6,286046954.8,N,0.0,0.0
1487963955.5,286046952.2,N,0.0,0.0
1487963975.3,286046955.6,N,0.0,0.0
1487963995.1,286046953.4,N,0.0,0.0
1487964015.8,286046958.4,N,0.0,0.0
1487964035.7,286046962.2,N,0.0,0.0
1487964055.5,286046968.3,N,0.0,0.0
1487964075.3,286046975.6,N,0.0,0.0
1487964095.2,286046981.7,N,0.0,0.0
1487964115.0,286046984.9,N,0.0,0.0
1487964115.9,286046984.9,N,0.0,0.0
1487964135.7,286046990.2,N,0.0,0.0
1487964155.6,286046997.8,N,0.0,0.0
1487964175.4,286046993.7,N,0.0,0.0
1487964195.2,286046993.4,N,0.0,0.0
1487964215.1,286046992.5,N,0.0,0.0
1487964216.0,286046992.5,N,0.0,0.0
1487964235.8,286046992.8,N,0.0,0.0
1487964255.6,286046991.1,N,0.0,0.0
1487964275.5,286046991.6,N,0.0,0.0
1487964295.3,286046987.7,N,0.0,0.0
1487964315.1,286046988.1,N,0.0,0.0
1487964335.9,286046986.5,N,0.0,0.0
1487964355.7,286046984.0,N,0.0,0.0
1487964375.5,286046985.6,N,0.0,0.0
1487964395.4,286046984.7,N,0.0,0.0
1487964415.2,286046982.4,N,0.0,0.0
1487964435.0,286046986.5,N,0.0,0.0
1487964435.9,286046986.5,N,0.0,0.0
1487964455.8,286046996.4,N,0.0,0.0
1487964475.6,286046999.4,N,0.0,0.0
1487964495.4,286047030.5,N,0.0,0.0
1487964515.3,286047007.3,N,0.0,0.0
1487964535.1,286047006.7,N,0.0,0.0
1487964536.0,286047006.7,N,0.0,0.0
1487964555.8,286047009.8,N,0.0,0.0
1487964575.7,286047008.1,N,0.0,0.0
1487964595.5,286047014.6,N,0.0,0.0
1487964615.3,286047014.6,N,0.0,0.0
1487964635.1,286047019.0,N,0.0,0.0
1487964655.9,286047027.1,N,0.0,0.0
1487964675.7,286047026.0,N,0.0,0.0
1487964695.5,286047029.8,N,0.0,0.0
1487964715.4,286047028.7,N,0.0,0.0
1487964735.2,286047029.9,N,0.0,0.0
1487964755.0,286047026.1,N,0.0,0.0
1487964755.9,286047026.1,N,0.0,0.0
1487964775.8,286047028.8,N,0.0,0.0
1487964795.6,286047030.8,N,0.0,0.0
1487964815.4,286047032.3,N,0.0,0.0
1487964835.3,286047037.5,N,0.0,0.0
1487964855.1,286047042.2,N,0.0,0.0
1487964875.8,286047039.8,N,0.0,0.0
1487964895.7,286047042.9,N,0.0,0.0
1487964915.5,286047044.6,N,0.0,0.0
1487964935.3,286047048.3,N,0.0,0.0
1487964955.2,286047053.1,N,0.0,0.0
1487964975.9,286047051.3,N,0.0,0.0
1487964995.7,286047056.6,N,0.0,0.0
1487965015.6,286047057.2,N,0.0,0.0
1487965035.4,286047065.8,N,0.0,0.0
1487965055.2,286047071.6,N,0.0,0.0
1487965075.1,286047075.9,N,0.0,0.0
1487965076.0,286047075.9,N,0.0,0.0
1487965095.8,286047078.7,N,0.0,0.0
1487965115.6,286047080.0,N,0.0,0.0
1487965135.5,286047087.6,N,0.0,0.0
1487965155.3,286047091.7,N,0.0,0.0
1487965175.1,286047093.3,N,0.0,0.0
1487965195.9,286047096.7,N,0.0,0.0
1487965215.7,286047098.4,N,0.0,0.0
1487965235.5,286047101.1,N,0.0,0.0
1487965255.3,286047103.6,N,0.0,0.0
1487965275.2,286047106.9,N,0.0,0.0
1487965295.0,286047109.1,N,0.0,0.0
1487965295.9,286047109.1,N,0.0,0.0
1487965315.7,286047111.8,N,0.0,0.0
1487965335.6,286047116.2,N,0.0,0.0
1487965355.4,286047117.9,N,0.0,0.0
1487965375.2,286047123.3,N,0.0,0.0
1487965395.1,286047127.4,N,0.0,0.0
1487965396.0,286047127.4,N,0.0,0.0
1487965415.8,286047130.9,N,0.0,0.0
1487965435.6,286047140.0,Y,0.0,0.0
1487965455.5,286047159.0,Y,0.0,0.0
1487965475.3,286047176.9,Y,0.0,0.0
1487965495.2,286047194.8,Y,0.0,0.0
1487965515.9,286047210.6,Y,0.0,0.0
1487965535.7,286047224.6,Y,0.0,0.0
1487965555.6,286047236.8,Y,0.0,0.0
1487965575.4,286047251.9,Y,0.0,0.0
1487965595.3,286047261.0,Y,0.0,0.0
1487965615.1,286047278.8,Y,0.0,0.0
1487965635.9,286047286.6,Y,0.0,0.0
1487965655.7,286047293.0,Y,0.0,0.0
1487965675.5,286047304.0,Y,0.0,0.0
1487965695.4,286047310.6,Y,0.0,0.0
1487965715.2,286047318.4,Y,0.0,0.0
1487965735.1,286047320.3,Y,0.0,0.0
1487965736.0,286047320.3,Y,0.0,0.0
1487965755.8,286047327.8,Y,0.0,0.0
1487965775.6,286047330.9,Y,0.0,0.0
1487965795.5,286047334.4,Y,0.0,0.0
1487965815.3,286047331.1,Y,0.0,0.0
1487965835.2,286047327.8,Y,0.0,0.0
1487965855.9,286047326.8,Y,0.0,0.0
1487965875.7,286047320.0,Y,0.0,0.0
1487965895.6,286047315.9,Y,0.0,0.0
1487965915.4,286047314.2,Y,0.0,0.0
1487965935.3,286047306.2,Y,0.0,0.0
1487965955.1,286047298.1,Y,0.0,0.0
1487965975.8,286047288.1,N,0.0,0.0
1487965995.7,286047293.4,N,0.0,0.0
1487966015.5,286047294.7,N,0.0,0.0
1487966035.3,286047292.8,N,0.0,0.0
1487966055.2,286047295.2,N,0.0,0.0
1487966075.9,286047294.8,N,0.0,0.0
1487966095.7,286047297.1,N,0.0,0.0
1487966115.6,286047298.3,N,0.0,0.0
1487966135.4,286047303.5,N,0.0,0.0
1487966155.2,286047303.5,N,0.0,0.0
1487966175.1,286047305.6,N,0.0,0.0
1487966176.0,286047305.6,N,0.0,0.0
1487966195.8,286047307.3,N,0.0,0.0
1487966215.6,286047310.1,N,0.0,0.0
1487966235.5,286047312.3,N,0.0,0.0
1487966255.3,286047313.6,N,0.0,0.0
1487966275.1,286047320.5,N,0.0,0.0
1487966295.8,286047318.9,N,0.0,0.0
1487966315.7,286047320.5,N,0.0,0.0
1487966335.5,286047325.4,N,0.0,0.0
1487966355.3,286047329.0,N,0.0,0.0
1487966375.2,286047325.1,N,0.0,0.0
1487966395.0,286047330.8,N,0.0,0.0
1487966395.9,286047330.8,N,0.0,0.0
